sat.trackr.live / text

‹ back to catalog

STARLINK-36968

NORAD 67995 · 2026-039K

PAYLOAD ACTIVE UNKNOWN

§ Identity

Operator
Country
US
Launch date
2026-02-27
Launch site
AFETR
Launch vehicle
Mass (kg)
RCS (m²)

Purposes: comms

External: N2YO · Heavens-Above · Gunter

§ Orbital elements

Epoch: 2026-05-24T17:12:41.668416Z

Period
94.27 min
Inclination
43.0025°
Eccentricity
0.0001708
Mean motion
15.27583530 rev/d
Perigee alt
481.9 km
Apogee alt
484.2 km
Semi-major
6,861.2 km
B*
7.9259e-4
RAAN
339.3450°
Arg perigee
260.9109°
Mean anomaly
99.1549°
Rev number
1,333

§ Raw data

STARLINK-369681 67995U 26039K   26144.71714894  .00021615  00000+0  79259-3 0  99932 67995  43.0025 339.3450 0001708 260.9109  99.1549 15.27583530 13338

JSON: /api/v1/satellites/67995 · /tle

For live sub-satellite position, see the globe view (requires WebGL).

§ Visibility from observer

Set your observer location to see the next 7 days of passes ≥ 10°. The values pass through the URL so the page stays shareable.

No JS? Fill the form by hand. The geolocation button needs JavaScript.